Time,TemperatureF,DewpointF,PressureIn,WindDirection,WindDirectionDegrees,WindSpeedMPH,WindSpeedGustMPH,Humidity,HourlyPrecipIn,Conditions,Clouds,dailyrainin,SoftwareType,DateUTC
2013-10-02 00:00:00,48.2,42.0,29.77,SW,219,2.0,3.0,80,0.00,,,0.00,weatherlink.com 1.10,2013-10-02 07:00:00,
2013-10-02 00:15:00,49.3,41.0,29.77,South,191,0.0,4.0,73,0.00,,,0.00,weatherlink.com 1.10,2013-10-02 07:15:00,
2013-10-02 00:30:00,49.3,40.0,29.77,WNW,295,1.0,4.0,71,0.00,,,0.00,weatherlink.com 1.10,2013-10-02 07:30:00,
2013-10-02 00:45:00,48.6,40.0,29.77,NW,304,0.0,2.0,73,0.00,,,0.00,weatherlink.com 1.10,2013-10-02 07:45:00,
2013-10-02 01:00:00,47.6,40.0,29.78,NW,304,1.0,2.0,75,0.00,,,0.00,weatherlink.com 1.10,2013-10-02 08:00:00,
2013-10-02 01:15:00,47.2,40.0,29.78,WNW,283,0.0,3.0,76,0.00,,,0.00,weatherlink.com 1.10,2013-10-02 08:15:00,
2013-10-02 01:30:00,47.1,40.0,29.78,WNW,282,0.0,3.0,75,0.00,,,0.00,weatherlink.com 1.10,2013-10-02 08:30:00,
2013-10-02 01:45:00,46.5,40.0,29.78,WNW,282,0.0,1.0,78,0.00,,,0.00,weatherlink.com 1.10,2013-10-02 08:45:00,
2013-10-02 02:00:00,45.8,40.0,29.78,WNW,283,0.0,2.0,79,0.00,,,0.00,weatherlink.com 1.10,2013-10-02 09:00:00,
2013-10-02 02:15:00,45.1,40.0,29.77,WNW,282,0.0,2.0,81,0.00,,,0.00,weatherlink.com 1.10,2013-10-02 09:15:00,
2013-10-02 02:30:00,44.6,40.0,29.78,WNW,282,0.0,2.0,83,0.00,,,0.00,weatherlink.com 1.10,2013-10-02 09:30:00,
2013-10-02 02:45:00,44.2,40.0,29.77,WNW,283,0.0,1.0,84,0.00,,,0.00,weatherlink.com 1.10,2013-10-02 09:45:00,
2013-10-02 03:00:00,43.9,40.0,29.77,WNW,283,0.0,2.0,86,0.00,,,0.00,weatherlink.com 1.10,2013-10-02 10:00:00,
2013-10-02 03:15:00,43.7,40.0,29.77,WNW,301,0.0,2.0,86,0.00,,,0.00,weatherlink.com 1.10,2013-10-02 10:15:00,
2013-10-02 03:30:00,43.2,40.0,29.77,WNW,301,0.0,1.0,88,0.00,,,0.00,weatherlink.com 1.10,2013-10-02 10:30:00,
2013-10-02 03:45:00,42.8,40.0,29.77,WNW,301,0.0,0.0,88,0.00,,,0.00,weatherlink.com 1.10,2013-10-02 10:45:00,
2013-10-02 04:00:00,42.4,39.0,29.77,WNW,301,0.0,1.0,89,0.00,,,0.00,weatherlink.com 1.10,2013-10-02 11:00:00,
2013-10-02 04:15:00,42.4,40.0,29.78,WNW,301,0.0,1.0,91,0.00,,,0.00,weatherlink.com 1.10,2013-10-02 11:15:00,
2013-10-02 04:30:00,42.2,40.0,29.78,WNW,301,0.0,0.0,91,0.00,,,0.00,weatherlink.com 1.10,2013-10-02 11:30:00,
2013-10-02 04:45:00,41.8,39.0,29.78,WNW,301,0.0,1.0,91,0.00,,,0.00,weatherlink.com 1.10,2013-10-02 11:45:00,
2013-10-02 05:00:00,41.6,39.0,29.78,NNW,334,0.0,2.0,90,0.00,,,0.00,weatherlink.com 1.10,2013-10-02 12:00:00,
2013-10-02 05:15:00,41.1,38.0,29.78,NNW,334,0.0,0.0,90,0.00,,,0.00,weatherlink.com 1.10,2013-10-02 12:15:00,
2013-10-02 05:30:00,40.8,39.0,29.78,NNW,334,0.0,1.0,92,0.00,,,0.00,weatherlink.com 1.10,2013-10-02 12:30:00,
2013-10-02 05:45:00,40.4,38.0,29.79,NNW,334,0.0,0.0,91,0.00,,,0.00,weatherlink.com 1.10,2013-10-02 12:45:00,
2013-10-02 06:00:00,39.9,38.0,29.79,NNW,334,0.0,0.0,92,0.00,,,0.00,weatherlink.com 1.10,2013-10-02 13:00:00,
2013-10-02 06:16:00,39.6,38.0,29.80,NNW,334,0.0,0.0,92,0.00,,,0.00,weatherlink.com 1.10,2013-10-02 13:16:00,
2013-10-02 06:31:00,39.4,38.0,29.80,NNW,334,0.0,0.0,93,0.00,,,0.00,weatherlink.com 1.10,2013-10-02 13:31:00,
2013-10-02 06:46:00,39.4,38.0,29.80,NNW,334,0.0,0.0,93,0.00,,,0.00,weatherlink.com 1.10,2013-10-02 13:46:00,
2013-10-02 07:01:00,39.7,38.0,29.81,NNW,334,0.0,0.0,94,0.00,,,0.00,weatherlink.com 1.10,2013-10-02 14:01:00,
2013-10-02 07:16:00,41.1,40.0,29.81,NNW,334,0.0,0.0,96,0.00,,,0.00,weatherlink.com 1.10,2013-10-02 14:16:00,
2013-10-02 07:31:00,43.2,42.0,29.81,NNW,334,0.0,0.0,95,0.00,,,0.00,weatherlink.com 1.10,2013-10-02 14:31:00,
2013-10-02 07:46:00,46.3,44.0,29.81,NNW,334,0.0,0.0,90,0.00,,,0.00,weatherlink.com 1.10,2013-10-02 14:46:00,
2013-10-02 08:01:00,50.4,44.0,29.82,NNW,334,0.0,1.0,78,0.00,,,0.00,weatherlink.com 1.10,2013-10-02 15:01:00,
2013-10-02 08:16:00,54.2,46.0,29.82,NNW,334,0.0,1.0,73,0.00,,,0.00,weatherlink.com 1.10,2013-10-02 15:16:00,
2013-10-02 08:31:00,57.6,46.0,29.82,NNW,334,1.0,2.0,66,0.00,,,0.00,weatherlink.com 1.10,2013-10-02 15:31:00,
2013-10-02 08:46:00,60.8,43.0,29.82,NNW,335,1.0,3.0,53,0.00,,,0.00,weatherlink.com 1.10,2013-10-02 15:46:00,
2013-10-02 09:01:00,63.8,45.0,29.82,NNW,334,1.0,2.0,50,0.00,,,0.00,weatherlink.com 1.10,2013-10-02 16:01:00,
2013-10-02 09:16:00,66.1,46.0,29.82,NNW,334,0.0,2.0,48,0.00,,,0.00,weatherlink.com 1.10,2013-10-02 16:16:00,
2013-10-02 09:31:00,68.3,43.0,29.81,NNW,332,0.0,2.0,40,0.00,,,0.00,weatherlink.com 1.10,2013-10-02 16:31:00,
2013-10-02 09:46:00,69.2,41.0,29.81,North,5,0.0,3.0,36,0.00,,,0.00,weatherlink.com 1.10,2013-10-02 16:46:00,
2013-10-02 10:01:00,69.9,40.0,29.80,NNW,346,1.0,3.0,34,0.00,,,0.00,weatherlink.com 1.10,2013-10-02 17:01:00,
2013-10-02 10:16:00,71.0,40.0,29.80,North,355,0.0,3.0,33,0.00,,,0.00,weatherlink.com 1.10,2013-10-02 17:16:00,
2013-10-02 10:31:00,72.5,40.0,29.79,North,10,0.0,3.0,31,0.00,,,0.00,weatherlink.com 1.10,2013-10-02 17:31:00,
2013-10-02 10:46:00,74.1,44.0,29.78,SSW,200,1.0,4.0,34,0.00,,,0.00,weatherlink.com 1.10,2013-10-02 17:46:00,
2013-10-02 11:01:00,75.6,44.0,29.78,SSW,205,0.0,5.0,33,0.00,,,0.00,weatherlink.com 1.10,2013-10-02 18:01:00,
2013-10-02 11:17:00,76.4,45.0,29.77,South,180,0.0,5.0,33,0.00,,,0.00,weatherlink.com 1.10,2013-10-02 18:17:00,
2013-10-02 11:32:00,77.3,45.0,29.76,WSW,243,2.0,7.0,32,0.00,,,0.00,weatherlink.com 1.10,2013-10-02 18:32:00,
2013-10-02 11:47:00,78.2,46.0,29.75,SSE,157,0.0,8.0,32,0.00,,,0.00,weatherlink.com 1.10,2013-10-02 18:47:00,
2013-10-02 12:02:00,79.0,47.0,29.74,South,189,0.0,5.0,33,0.00,,,0.00,weatherlink.com 1.10,2013-10-02 19:02:00,
2013-10-02 12:17:00,79.9,48.0,29.73,SE,126,6.0,8.0,33,0.00,,,0.00,weatherlink.com 1.10,2013-10-02 19:17:00,
2013-10-02 12:32:00,80.5,49.0,29.72,SSW,207,1.0,8.0,33,0.00,,,0.00,weatherlink.com 1.10,2013-10-02 19:32:00,
2013-10-02 12:47:00,81.7,46.0,29.70,ESE,109,7.0,12.0,29,0.00,,,0.00,weatherlink.com 1.10,2013-10-02 19:47:00,
2013-10-02 13:02:00,82.0,46.0,29.70,SE,138,6.0,16.0,28,0.00,,,0.00,weatherlink.com 1.10,2013-10-02 20:02:00,
2013-10-02 13:17:00,82.0,47.0,29.69,SW,236,3.0,12.0,29,0.00,,,0.00,weatherlink.com 1.10,2013-10-02 20:17:00,
2013-10-02 13:32:00,82.2,46.0,29.68,ESE,106,7.0,13.0,28,0.00,,,0.00,weatherlink.com 1.10,2013-10-02 20:32:00,
2013-10-02 13:47:00,82.1,45.0,29.67,SE,129,4.0,13.0,27,0.00,,,0.00,weatherlink.com 1.10,2013-10-02 20:47:00,
2013-10-02 14:02:00,81.9,46.0,29.67,South,188,1.0,13.0,28,0.00,,,0.00,weatherlink.com 1.10,2013-10-02 21:02:00,
2013-10-02 14:17:00,82.1,47.0,29.66,SE,126,5.0,13.0,29,0.00,,,0.00,weatherlink.com 1.10,2013-10-02 21:17:00,
2013-10-02 14:32:00,82.2,43.0,29.66,ESE,121,2.0,12.0,25,0.00,,,0.00,weatherlink.com 1.10,2013-10-02 21:32:00,
2013-10-02 14:47:00,82.3,45.0,29.65,East,86,2.0,14.0,27,0.00,,,0.00,weatherlink.com 1.10,2013-10-02 21:47:00,
2013-10-02 15:02:00,82.0,44.0,29.65,SW,220,2.0,9.0,26,0.00,,,0.00,weatherlink.com 1.10,2013-10-02 22:02:00,
2013-10-02 15:17:00,82.2,43.0,29.65,SSW,208,5.0,15.0,25,0.00,,,0.00,weatherlink.com 1.10,2013-10-02 22:17:00,
2013-10-02 15:32:00,82.6,43.0,29.65,SSE,154,7.0,10.0,25,0.00,,,0.00,weatherlink.com 1.10,2013-10-02 22:32:00,
2013-10-02 15:47:00,82.2,44.0,29.65,SE,146,2.0,10.0,26,0.00,,,0.00,weatherlink.com 1.10,2013-10-02 22:47:00,
2013-10-02 16:02:00,81.9,44.0,29.65,SSE,165,1.0,10.0,26,0.00,,,0.00,weatherlink.com 1.10,2013-10-02 23:02:00,
2013-10-02 16:17:00,81.5,43.0,29.64,SE,130,1.0,9.0,26,0.00,,,0.00,weatherlink.com 1.10,2013-10-02 23:17:00,
2013-10-02 16:32:00,80.8,42.0,29.64,SSE,167,6.0,10.0,25,0.00,,,0.00,weatherlink.com 1.10,2013-10-02 23:32:00,
2013-10-02 16:47:00,80.1,43.0,29.64,ESE,121,3.0,7.0,27,0.00,,,0.00,weatherlink.com 1.10,2013-10-02 23:47:00,
2013-10-02 17:02:00,79.3,43.0,29.64,East,101,2.0,11.0,28,0.00,,,0.00,weatherlink.com 1.10,2013-10-03 00:02:00,
2013-10-02 17:17:00,78.3,42.0,29.64,SE,138,9.0,9.0,27,0.00,,,0.00,weatherlink.com 1.10,2013-10-03 00:17:00,
2013-10-02 17:32:00,77.3,42.0,29.64,SE,145,3.0,8.0,28,0.00,,,0.00,weatherlink.com 1.10,2013-10-03 00:32:00,
2013-10-02 17:47:00,76.2,43.0,29.64,SSE,163,4.0,6.0,30,0.00,,,0.00,weatherlink.com 1.10,2013-10-03 00:47:00,
2013-10-02 18:02:00,74.8,41.0,29.65,SE,139,0.0,3.0,30,0.00,,,0.00,weatherlink.com 1.10,2013-10-03 01:02:00,
2013-10-02 18:17:00,73.0,41.0,29.65,SSW,210,2.0,5.0,31,0.00,,,0.00,weatherlink.com 1.10,2013-10-03 01:17:00,
2013-10-02 18:32:00,71.8,40.0,29.66,SW,217,3.0,4.0,32,0.00,,,0.00,weatherlink.com 1.10,2013-10-03 01:32:00,
2013-10-02 18:47:00,71.3,41.0,29.66,SSW,213,3.0,4.0,34,0.00,,,0.00,weatherlink.com 1.10,2013-10-03 01:47:00,
2013-10-02 19:02:00,70.8,40.0,29.66,SSW,206,2.0,7.0,33,0.00,,,0.00,weatherlink.com 1.10,2013-10-03 02:02:00,
2013-10-02 19:17:00,70.7,40.0,29.66,SW,227,1.0,6.0,33,0.00,,,0.00,weatherlink.com 1.10,2013-10-03 02:17:00,
2013-10-02 19:32:00,68.7,43.0,29.67,East,88,0.0,2.0,39,0.00,,,0.00,weatherlink.com 1.10,2013-10-03 02:32:00,
2013-10-02 19:47:00,66.7,43.0,29.67,ENE,67,0.0,4.0,42,0.00,,,0.00,weatherlink.com 1.10,2013-10-03 02:47:00,
2013-10-02 20:02:00,64.6,42.0,29.67,ESE,115,0.0,2.0,44,0.00,,,0.00,weatherlink.com 1.10,2013-10-03 03:02:00,
2013-10-02 20:17:00,62.9,43.0,29.67,East,101,1.0,3.0,49,0.00,,,0.00,weatherlink.com 1.10,2013-10-03 03:17:00,
2013-10-02 20:32:00,61.6,44.0,29.68,South,185,0.0,2.0,52,0.00,,,0.00,weatherlink.com 1.10,2013-10-03 03:32:00,
2013-10-02 20:47:00,60.2,43.0,29.68,South,185,0.0,1.0,54,0.00,,,0.00,weatherlink.com 1.10,2013-10-03 03:47:00,
2013-10-02 21:02:00,58.7,43.0,29.69,West,273,1.0,3.0,56,0.00,,,0.00,weatherlink.com 1.10,2013-10-03 04:02:00,
2013-10-02 21:17:00,58.4,43.0,29.69,SW,232,0.0,4.0,58,0.00,,,0.00,weatherlink.com 1.10,2013-10-03 04:17:00,
2013-10-02 21:32:00,57.3,43.0,29.69,WSW,252,0.0,1.0,59,0.00,,,0.00,weatherlink.com 1.10,2013-10-03 04:32:00,
2013-10-02 21:47:00,56.0,44.0,29.69,WSW,252,0.0,2.0,64,0.00,,,0.00,weatherlink.com 1.10,2013-10-03 04:47:00,
2013-10-02 22:02:00,54.6,43.0,29.69,West,259,0.0,3.0,66,0.00,,,0.00,weatherlink.com 1.10,2013-10-03 05:02:00,
2013-10-02 22:17:00,53.5,43.0,29.69,WSW,248,2.0,3.0,68,0.00,,,0.00,weatherlink.com 1.10,2013-10-03 05:17:00,
2013-10-02 22:32:00,52.9,43.0,29.70,ESE,102,0.0,1.0,69,0.00,,,0.00,weatherlink.com 1.10,2013-10-03 05:32:00,
2013-10-02 22:47:00,52.1,43.0,29.69,ESE,102,0.0,1.0,72,0.00,,,0.00,weatherlink.com 1.10,2013-10-03 05:47:00,
2013-10-02 23:02:00,51.6,44.0,29.70,ESE,102,0.0,2.0,74,0.00,,,0.00,weatherlink.com 1.10,2013-10-03 06:02:00,
2013-10-02 23:17:00,50.8,43.0,29.69,ESE,102,0.0,1.0,75,0.00,,,0.00,weatherlink.com 1.10,2013-10-03 06:17:00,
2013-10-02 23:32:00,50.0,43.0,29.69,ESE,102,0.0,1.0,77,0.00,,,0.00,weatherlink.com 1.10,2013-10-03 06:32:00,
2013-10-02 23:47:00,49.4,43.0,29.70,ESE,102,0.0,0.0,79,0.00,,,0.00,weatherlink.com 1.10,2013-10-03 06:47:00,